Date,TemperatureHighF,TemperatureAvgF,TemperatureLowF,DewpointHighF,DewpointAvgF,DewpointLowF,HumidityHigh,HumidityAvg,HumidityLow,PressureMaxIn,PressureMinIn,WindSpeedMaxMPH,WindSpeedAvgMPH,GustSpeedMaxMPH,PrecipitationSumIn
2013-6-1,88.5,69.6,61.9,35.1,28.9,21.5,36,23,13,30.05,29.93,9,1,9,0.00
2013-6-2,71.4,64.8,61.9,48.9,40.3,29.0,55,41,26,29.99,29.84,9,0,9,2.09
2013-6-3,90.1,68.8,59.9,50.8,35.6,22.6,66,34,12,29.90,29.78,8,1,9,0.04
2013-6-4,91.4,69.2,58.8,32.4,26.9,18.5,34,22,12,29.99,29.87,8,1,8,0.04
2013-6-5,84.6,68.1,60.4,40.4,32.3,23.2,44,28,14,29.99,29.87,9,1,9,2.13
2013-6-6,75.6,65.0,59.7,56.0,38.7,29.3,68,40,21,29.90,29.72,5,0,5,0.31
2013-6-7,94.3,68.9,61.7,48.4,36.5,23.9,54,34,11,29.75,29.63,8,1,8,0.28
2013-6-8,86.2,67.5,57.9,44.9,32.9,23.1,59,31,13,30.02,29.75,6,1,6,0.04
2013-6-9,89.4,67.6,61.9,49.3,35.4,23.8,58,33,13,30.05,29.96,8,1,8,3.23
2013-6-10,84.9,67.7,60.6,54.3,40.6,23.5,68,42,13,29.96,29.84,12,2,12,2.13
2013-6-11,93.9,72.1,60.3,42.4,31.9,20.6,51,26,11,29.96,29.87,10,2,10,0.12
2013-6-12,100.4,75.0,62.1,34.9,29.1,23.4,35,19,10,29.99,29.90,8,2,8,0.04
2013-6-13,95.5,72.1,61.7,40.5,30.7,22.3,45,24,11,29.93,29.72,15,3,15,0.39
2013-6-14,92.1,67.4,53.1,44.2,27.0,15.3,51,24,12,29.96,29.75,9,1,9,0.00
2013-6-15,88.7,67.9,56.3,31.5,21.6,15.3,22,17,13,30.02,29.96,10,2,10,0.00
2013-6-16,91.8,71.2,59.9,32.0,25.2,18.0,25,18,12,30.05,29.96,8,1,8,0.00
2013-6-17,88.5,70.4,63.5,39.7,33.1,24.7,39,27,13,29.99,29.90,6,0,6,1.22
2013-6-18,85.3,69.6,62.6,45.2,35.0,23.9,50,31,13,29.90,29.78,8,1,8,0.00
2013-6-19,86.5,67.2,59.0,37.3,30.4,23.1,40,27,13,30.02,29.84,6,0,6,0.00
2013-6-20,85.1,66.7,58.1,40.7,29.8,21.6,47,27,13,30.11,29.99,8,1,8,0.00
2013-6-21,91.4,70.1,59.2,44.6,30.4,20.9,54,26,12,30.14,30.08,10,1,10,0.00
2013-6-22,92.1,69.4,56.8,34.7,28.3,19.3,39,24,12,30.14,30.05,7,1,8,0.00
2013-6-23,88.3,69.2,61.3,42.9,29.3,23.4,42,24,13,30.11,30.05,8,0,8,1.50
2013-6-24,85.6,69.8,62.6,56.1,36.9,25.0,63,34,13,30.14,30.02,5,1,7,0.55
2013-6-25,92.1,70.3,63.5,48.6,31.8,23.1,54,26,12,30.08,29.99,6,1,6,0.75
2013-6-26,91.8,70.7,62.8,49.0,37.6,24.1,58,34,12,29.99,29.90,12,0,12,0.08
2013-6-27,94.5,73.7,63.1,46.1,33.0,23.8,51,25,11,29.93,29.75,9,1,9,0.12
2013-6-28,95.4,73.9,63.0,46.4,31.5,22.5,51,23,11,29.81,29.63,11,2,11,0.08
2013-6-29,94.8,71.8,60.3,33.5,27.4,19.6,36,20,11,29.69,29.60,8,1,8,0.08
2013-6-30,90.0,70.0,61.7,32.5,23.6,18.5,30,18,12,29.78,29.66,6,1,6,0.87